Date_Time,Julian_Date,Latitude,Longitude,Instrument_Depth,U,V,Speed,Direction
(yyyy-mm-dd hh:mn:ss UTC),(JD),(+ deg. North),(+ deg. East),(m),(cm/s),(cm/s),(cm/s),(deg True)
1983-07-19 23:00:00 UTC,2445535.458333,28.7317,-95.2428,0170,7.31,6.82,10.0000,47.0000
1983-07-19 23:30:00 UTC,2445535.479167,28.7317,-95.2428,0170,6.69,7.43,10.0000,42.0000
1983-07-20 00:00:00 UTC,2445535.500000,28.7317,-95.2428,0170,5.50,9.53,11.0000,30.0000
1983-07-20 00:30:00 UTC,2445535.520833,28.7317,-95.2428,0170,5.29,11.88,13.0000,24.0000
1983-07-20 01:00:00 UTC,2445535.541667,28.7317,-95.2428,0170,6.25,14.73,16.0000,23.0000
1983-07-20 01:30:00 UTC,2445535.562500,28.7317,-95.2428,0170,6.74,16.69,18.0000,22.0000
1983-07-20 02:00:00 UTC,2445535.583333,28.7317,-95.2428,0170,6.51,18.91,20.0000,19.0000
1983-07-20 02:30:00 UTC,2445535.604167,28.7317,-95.2428,0170,6.21,23.18,24.0000,15.0000
1983-07-20 03:00:00 UTC,2445535.625000,28.7317,-95.2428,0170,5.61,26.41,27.0000,12.0000
1983-07-20 03:30:00 UTC,2445535.645833,28.7317,-95.2428,0170,6.97,30.21,31.0000,13.0000
1983-07-20 04:00:00 UTC,2445535.666667,28.7317,-95.2428,0170,11.12,34.24,36.0000,18.0000
1983-07-20 04:30:00 UTC,2445535.687500,28.7317,-95.2428,0170,14.61,36.16,39.0000,22.0000
1983-07-20 05:00:00 UTC,2445535.708333,28.7317,-95.2428,0170,15.05,33.80,37.0000,24.0000
1983-07-20 05:30:00 UTC,2445535.729167,28.7317,-95.2428,0170,14.03,28.76,32.0000,26.0000
1983-07-20 06:00:00 UTC,2445535.750000,28.7317,-95.2428,0170,15.51,27.99,32.0000,29.0000
1983-07-20 06:30:00 UTC,2445535.770833,28.7317,-95.2428,0170,18.02,28.83,34.0000,32.0000
1983-07-20 07:00:00 UTC,2445535.791667,28.7317,-95.2428,0170,18.02,28.83,34.0000,32.0000
1983-07-20 07:30:00 UTC,2445535.812500,28.7317,-95.2428,0170,16.48,27.43,32.0000,31.0000
1983-07-20 08:00:00 UTC,2445535.833333,28.7317,-95.2428,0170,16.43,26.29,31.0000,32.0000
1983-07-20 08:30:00 UTC,2445535.854167,28.7317,-95.2428,0170,15.37,24.59,29.0000,32.0000
1983-07-20 09:00:00 UTC,2445535.875000,28.7317,-95.2428,0170,14.31,22.90,27.0000,32.0000
1983-07-20 09:30:00 UTC,2445535.895833,28.7317,-95.2428,0170,14.16,21.81,26.0000,33.0000
1983-07-20 10:00:00 UTC,2445535.916667,28.7317,-95.2428,0170,13.98,20.73,25.0000,34.0000
1983-07-20 10:30:00 UTC,2445535.937500,28.7317,-95.2428,0170,13.07,20.13,24.0000,33.0000
1983-07-20 11:00:00 UTC,2445535.958333,28.7317,-95.2428,0170,12.86,19.07,23.0000,34.0000
1983-07-20 11:30:00 UTC,2445535.979167,28.7317,-95.2428,0170,13.77,19.66,24.0000,35.0000
1983-07-20 12:00:00 UTC,2445536.000000,28.7317,-95.2428,0170,15.28,21.03,26.0000,36.0000
1983-07-20 12:30:00 UTC,2445536.020833,28.7317,-95.2428,0170,17.24,22.06,28.0000,38.0000
1983-07-20 13:00:00 UTC,2445536.041667,28.7317,-95.2428,0170,19.03,21.89,29.0000,41.0000
1983-07-20 13:30:00 UTC,2445536.062500,28.7317,-95.2428,0170,19.40,21.55,29.0000,42.0000
1983-07-20 14:00:00 UTC,2445536.083333,28.7317,-95.2428,0170,19.40,21.55,29.0000,42.0000
1983-07-20 14:30:00 UTC,2445536.104167,28.7317,-95.2428,0170,20.15,20.86,29.0000,44.0000
1983-07-20 15:00:00 UTC,2445536.125000,28.7317,-95.2428,0170,21.21,21.21,30.0000,45.0000
1983-07-20 15:30:00 UTC,2445536.145833,28.7317,-95.2428,0170,23.02,22.23,32.0000,46.0000
1983-07-20 16:00:00 UTC,2445536.166667,28.7317,-95.2428,0170,26.33,24.55,36.0000,47.0000
1983-07-20 16:30:00 UTC,2445536.187500,28.7317,-95.2428,0170,29.25,27.28,40.0000,47.0000
1983-07-20 17:00:00 UTC,2445536.208333,28.7317,-95.2428,0170,30.93,29.87,43.0000,46.0000
1983-07-20 17:30:00 UTC,2445536.229167,28.7317,-95.2428,0170,31.65,30.56,44.0000,46.0000
1983-07-20 18:00:00 UTC,2445536.250000,28.7317,-95.2428,0170,32.18,30.01,44.0000,47.0000
1983-07-20 18:30:00 UTC,2445536.270833,28.7317,-95.2428,0170,31.96,28.77,43.0000,48.0000
1983-07-20 19:00:00 UTC,2445536.291667,28.7317,-95.2428,0170,30.93,29.87,43.0000,46.0000
1983-07-20 19:30:00 UTC,2445536.312500,28.7317,-95.2428,0170,31.11,31.11,44.0000,45.0000
1983-07-20 20:00:00 UTC,2445536.333333,28.7317,-95.2428,0170,35.47,30.83,47.0000,49.0000
1983-07-20 20:30:00 UTC,2445536.354167,28.7317,-95.2428,0170,37.82,29.55,48.0000,52.0000
1983-07-20 21:00:00 UTC,2445536.375000,28.7317,-95.2428,0170,34.67,27.09,44.0000,52.0000
1983-07-20 21:30:00 UTC,2445536.395833,28.7317,-95.2428,0170,33.54,25.28,42.0000,53.0000
1983-07-20 22:00:00 UTC,2445536.416667,28.7317,-95.2428,0170,33.54,25.28,42.0000,53.0000
1983-07-20 22:30:00 UTC,2445536.437500,28.7317,-95.2428,0170,33.54,25.28,42.0000,53.0000
1983-07-20 23:00:00 UTC,2445536.458333,28.7317,-95.2428,0170,34.67,27.09,44.0000,52.0000
1983-07-20 23:30:00 UTC,2445536.479167,28.7317,-95.2428,0170,34.97,28.32,45.0000,51.0000
1983-07-21 00:00:00 UTC,2445536.500000,28.7317,-95.2428,0170,35.75,28.95,46.0000,51.0000
1983-07-21 00:30:00 UTC,2445536.520833,28.7317,-95.2428,0170,37.54,28.29,47.0000,53.0000
1983-07-21 01:00:00 UTC,2445536.541667,28.7317,-95.2428,0170,39.32,27.53,48.0000,55.0000
1983-07-21 01:30:00 UTC,2445536.562500,28.7317,-95.2428,0170,40.62,27.40,49.0000,56.0000
1983-07-21 02:00:00 UTC,2445536.583333,28.7317,-95.2428,0170,40.62,27.40,49.0000,56.0000
1983-07-21 02:30:00 UTC,2445536.604167,28.7317,-95.2428,0170,37.82,29.55,48.0000,52.0000
1983-07-21 03:00:00 UTC,2445536.625000,28.7317,-95.2428,0170,33.23,33.23,47.0000,45.0000
1983-07-21 03:30:00 UTC,2445536.645833,28.7317,-95.2428,0170,27.53,39.32,48.0000,35.0000
1983-07-21 04:00:00 UTC,2445536.666667,28.7317,-95.2428,0170,23.00,43.26,49.0000,28.0000
1983-07-21 04:30:00 UTC,2445536.687500,28.7317,-95.2428,0170,19.93,44.76,49.0000,24.0000
1983-07-21 05:00:00 UTC,2445536.708333,28.7317,-95.2428,0170,19.54,46.03,50.0000,23.0000
1983-07-21 05:30:00 UTC,2445536.729167,28.7317,-95.2428,0170,20.74,46.59,51.0000,24.0000
1983-07-21 06:00:00 UTC,2445536.750000,28.7317,-95.2428,0170,23.15,45.44,51.0000,27.0000
1983-07-21 06:30:00 UTC,2445536.770833,28.7317,-95.2428,0170,27.56,44.10,52.0000,32.0000
1983-07-21 07:00:00 UTC,2445536.791667,28.7317,-95.2428,0170,29.83,42.60,52.0000,35.0000
1983-07-21 07:30:00 UTC,2445536.812500,28.7317,-95.2428,0170,33.46,38.49,51.0000,41.0000
1983-07-21 08:00:00 UTC,2445536.833333,28.7317,-95.2428,0170,37.30,34.78,51.0000,47.0000
1983-07-21 08:30:00 UTC,2445536.854167,28.7317,-95.2428,0170,39.39,35.46,53.0000,48.0000
1983-07-21 09:00:00 UTC,2445536.875000,28.7317,-95.2428,0170,38.13,36.82,53.0000,46.0000
1983-07-21 09:30:00 UTC,2445536.895833,28.7317,-95.2428,0170,37.48,37.48,53.0000,45.0000
1983-07-21 10:00:00 UTC,2445536.916667,28.7317,-95.2428,0170,41.00,39.60,57.0000,46.0000
1983-07-21 10:30:00 UTC,2445536.937500,28.7317,-95.2428,0170,43.07,44.60,62.0000,44.0000
1983-07-21 11:00:00 UTC,2445536.958333,28.7317,-95.2428,0170,42.82,47.56,64.0000,42.0000
1983-07-21 11:30:00 UTC,2445536.979167,28.7317,-95.2428,0170,45.15,46.76,65.0000,44.0000
1983-07-21 12:00:00 UTC,2445537.000000,28.7317,-95.2428,0170,48.27,45.01,66.0000,47.0000
1983-07-21 12:30:00 UTC,2445537.020833,28.7317,-95.2428,0170,49.06,42.64,65.0000,49.0000
1983-07-21 13:00:00 UTC,2445537.041667,28.7317,-95.2428,0170,49.06,42.64,65.0000,49.0000
1983-07-21 13:30:00 UTC,2445537.062500,28.7317,-95.2428,0170,49.74,40.28,64.0000,51.0000
1983-07-21 14:00:00 UTC,2445537.083333,28.7317,-95.2428,0170,50.97,37.03,63.0000,54.0000
1983-07-21 14:30:00 UTC,2445537.104167,28.7317,-95.2428,0170,50.31,37.91,63.0000,53.0000
1983-07-21 15:00:00 UTC,2445537.125000,28.7317,-95.2428,0170,47.56,42.82,64.0000,48.0000
1983-07-21 15:30:00 UTC,2445537.145833,28.7317,-95.2428,0170,42.42,50.56,66.0000,40.0000
1983-07-21 16:00:00 UTC,2445537.166667,28.7317,-95.2428,0170,38.79,53.40,66.0000,36.0000
1983-07-21 16:30:00 UTC,2445537.187500,28.7317,-95.2428,0170,39.65,48.96,63.0000,39.0000
1983-07-21 17:00:00 UTC,2445537.208333,28.7317,-95.2428,0170,43.88,40.92,60.0000,47.0000
1983-07-21 17:30:00 UTC,2445537.229167,28.7317,-95.2428,0170,45.07,36.50,58.0000,51.0000
1983-07-21 18:00:00 UTC,2445537.250000,28.7317,-95.2428,0170,40.22,37.51,55.0000,47.0000
1983-07-21 18:30:00 UTC,2445537.270833,28.7317,-95.2428,0170,34.07,40.60,53.0000,40.0000
1983-07-21 19:00:00 UTC,2445537.291667,28.7317,-95.2428,0170,30.09,39.93,50.0000,37.0000
1983-07-21 19:30:00 UTC,2445537.312500,28.7317,-95.2428,0170,28.94,37.04,47.0000,38.0000
1983-07-21 20:00:00 UTC,2445537.333333,28.7317,-95.2428,0170,30.69,32.91,45.0000,43.0000
1983-07-21 20:30:00 UTC,2445537.354167,28.7317,-95.2428,0170,32.91,30.69,45.0000,47.0000
1983-07-21 21:00:00 UTC,2445537.375000,28.7317,-95.2428,0170,33.71,28.28,44.0000,50.0000
1983-07-21 21:30:00 UTC,2445537.395833,28.7317,-95.2428,0170,35.60,25.86,44.0000,54.0000
1983-07-21 22:00:00 UTC,2445537.416667,28.7317,-95.2428,0170,36.90,23.96,44.0000,57.0000
1983-07-21 22:30:00 UTC,2445537.437500,28.7317,-95.2428,0170,36.86,22.15,43.0000,59.0000
1983-07-21 23:00:00 UTC,2445537.458333,28.7317,-95.2428,0170,36.00,21.63,42.0000,59.0000
1983-07-21 23:30:00 UTC,2445537.479167,28.7317,-95.2428,0170,33.07,20.67,39.0000,58.0000
1983-07-22 00:00:00 UTC,2445537.500000,28.7317,-95.2428,0170,30.31,21.22,37.0000,55.0000
1983-07-22 00:30:00 UTC,2445537.520833,28.7317,-95.2428,0170,28.32,20.57,35.0000,54.0000
1983-07-22 01:00:00 UTC,2445537.541667,28.7317,-95.2428,0170,27.51,19.98,34.0000,54.0000
1983-07-22 01:30:00 UTC,2445537.562500,28.7317,-95.2428,0170,26.70,19.40,33.0000,54.0000
1983-07-22 02:00:00 UTC,2445537.583333,28.7317,-95.2428,0170,25.22,19.70,32.0000,52.0000
1983-07-22 02:30:00 UTC,2445537.604167,28.7317,-95.2428,0170,23.78,21.41,32.0000,48.0000
1983-07-22 03:00:00 UTC,2445537.625000,28.7317,-95.2428,0170,23.74,22.92,33.0000,46.0000
1983-07-22 03:30:00 UTC,2445537.645833,28.7317,-95.2428,0170,24.13,22.51,33.0000,47.0000
1983-07-22 04:00:00 UTC,2445537.666667,28.7317,-95.2428,0170,26.05,21.85,34.0000,50.0000
1983-07-22 04:30:00 UTC,2445537.687500,28.7317,-95.2428,0170,28.75,21.67,36.0000,53.0000
1983-07-22 05:00:00 UTC,2445537.708333,28.7317,-95.2428,0170,33.07,20.67,39.0000,58.0000
1983-07-22 05:30:00 UTC,2445537.729167,28.7317,-95.2428,0170,37.75,18.41,42.0000,64.0000
1983-07-22 06:00:00 UTC,2445537.750000,28.7317,-95.2428,0170,34.71,15.46,38.0000,66.0000
1983-07-22 06:30:00 UTC,2445537.770833,28.7317,-95.2428,0170,27.86,13.59,31.0000,64.0000
1983-07-22 07:00:00 UTC,2445537.791667,28.7317,-95.2428,0170,23.37,11.40,26.0000,64.0000
1983-07-22 07:30:00 UTC,2445537.812500,28.7317,-95.2428,0170,21.17,8.99,23.0000,67.0000
1983-07-22 08:00:00 UTC,2445537.833333,28.7317,-95.2428,0170,18.27,8.13,20.0000,66.0000
1983-07-22 08:30:00 UTC,2445537.854167,28.7317,-95.2428,0170,15.43,9.27,18.0000,59.0000
1983-07-22 09:00:00 UTC,2445537.875000,28.7317,-95.2428,0170,13.26,8.95,16.0000,56.0000
1983-07-22 09:30:00 UTC,2445537.895833,28.7317,-95.2428,0170,11.33,8.23,14.0000,54.0000
1983-07-22 10:00:00 UTC,2445537.916667,28.7317,-95.2428,0170,9.33,7.55,12.0000,51.0000
1983-07-22 10:30:00 UTC,2445537.937500,28.7317,-95.2428,0170,6.02,7.99,10.0000,37.0000
1983-07-22 11:00:00 UTC,2445537.958333,28.7317,-95.2428,0170,3.23,8.40,9.0000,21.0000
1983-07-22 11:30:00 UTC,2445537.979167,28.7317,-95.2428,0170,3.09,9.51,10.0000,18.0000
1983-07-22 12:00:00 UTC,2445538.000000,28.7317,-95.2428,0170,3.40,10.46,11.0000,18.0000
1983-07-22 12:30:00 UTC,2445538.020833,28.7317,-95.2428,0170,3.36,12.56,13.0000,15.0000
1983-07-22 13:00:00 UTC,2445538.041667,28.7317,-95.2428,0170,3.15,13.64,14.0000,13.0000
1983-07-22 13:30:00 UTC,2445538.062500,28.7317,-95.2428,0170,3.53,16.63,17.0000,12.0000
1983-07-22 14:00:00 UTC,2445538.083333,28.7317,-95.2428,0170,4.50,19.49,20.0000,13.0000
1983-07-22 14:30:00 UTC,2445538.104167,28.7317,-95.2428,0170,5.95,22.22,23.0000,15.0000
1983-07-22 15:00:00 UTC,2445538.125000,28.7317,-95.2428,0170,7.81,22.69,24.0000,19.0000
1983-07-22 15:30:00 UTC,2445538.145833,28.7317,-95.2428,0170,10.16,23.93,26.0000,23.0000
1983-07-22 16:00:00 UTC,2445538.166667,28.7317,-95.2428,0170,11.40,23.37,26.0000,26.0000
1983-07-22 16:30:00 UTC,2445538.187500,28.7317,-95.2428,0170,11.84,24.27,27.0000,26.0000
1983-07-22 17:00:00 UTC,2445538.208333,28.7317,-95.2428,0170,11.41,24.47,27.0000,25.0000
1983-07-22 17:30:00 UTC,2445538.229167,28.7317,-95.2428,0170,11.80,23.17,26.0000,27.0000
1983-07-22 18:00:00 UTC,2445538.250000,28.7317,-95.2428,0170,11.64,20.99,24.0000,29.0000
1983-07-22 18:30:00 UTC,2445538.270833,28.7317,-95.2428,0170,10.67,19.24,22.0000,29.0000
1983-07-22 19:00:00 UTC,2445538.291667,28.7317,-95.2428,0170,9.39,17.66,20.0000,28.0000
1983-07-22 19:30:00 UTC,2445538.312500,28.7317,-95.2428,0170,9.50,16.45,19.0000,30.0000
1983-07-22 20:00:00 UTC,2445538.333333,28.7317,-95.2428,0170,11.96,14.77,19.0000,39.0000
1983-07-22 20:30:00 UTC,2445538.354167,28.7317,-95.2428,0170,13.99,11.33,18.0000,51.0000
1983-07-22 21:00:00 UTC,2445538.375000,28.7317,-95.2428,0170,14.50,6.76,16.0000,65.0000
1983-07-22 21:30:00 UTC,2445538.395833,28.7317,-95.2428,0170,14.85,2.09,15.0000,82.0000
1983-07-22 22:00:00 UTC,2445538.416667,28.7317,-95.2428,0170,14.89,-1.83,15.0000,97.0000
1983-07-22 22:30:00 UTC,2445538.437500,28.7317,-95.2428,0170,15.22,-4.94,16.0000,108.0000
1983-07-22 23:00:00 UTC,2445538.458333,28.7317,-95.2428,0170,15.76,-6.37,17.0000,112.0000
1983-07-22 23:30:00 UTC,2445538.479167,28.7317,-95.2428,0170,17.62,-7.12,19.0000,112.0000
1983-07-23 00:00:00 UTC,2445538.500000,28.7317,-95.2428,0170,19.18,-8.54,21.0000,114.0000
1983-07-23 00:30:00 UTC,2445538.520833,28.7317,-95.2428,0170,18.66,-11.66,22.0000,122.0000
1983-07-23 01:00:00 UTC,2445538.541667,28.7317,-95.2428,0170,15.85,-13.78,21.0000,131.0000
1983-07-23 01:30:00 UTC,2445538.562500,28.7317,-95.2428,0170,14.14,-14.14,20.0000,135.0000
1983-07-23 02:00:00 UTC,2445538.583333,28.7317,-95.2428,0170,13.67,-13.20,19.0000,134.0000
1983-07-23 02:30:00 UTC,2445538.604167,28.7317,-95.2428,0170,14.34,-12.47,19.0000,131.0000
1983-07-23 03:00:00 UTC,2445538.625000,28.7317,-95.2428,0170,14.77,-11.96,19.0000,129.0000
1983-07-23 03:30:00 UTC,2445538.645833,28.7317,-95.2428,0170,15.17,-11.43,19.0000,127.0000
1983-07-23 04:00:00 UTC,2445538.666667,28.7317,-95.2428,0170,14.26,-9.26,17.0000,123.0000
1983-07-23 04:30:00 UTC,2445538.687500,28.7317,-95.2428,0170,11.48,-6.10,13.0000,118.0000
1983-07-23 05:00:00 UTC,2445538.708333,28.7317,-95.2428,0170,8.57,-5.15,10.0000,121.0000
1983-07-23 05:30:00 UTC,2445538.729167,28.7317,-95.2428,0170,5.90,-6.79,9.0000,139.0000
1983-07-23 06:00:00 UTC,2445538.750000,28.7317,-95.2428,0170,3.58,-9.34,10.0000,159.0000
1983-07-23 06:30:00 UTC,2445538.770833,28.7317,-95.2428,0170,1.88,-11.85,12.0000,171.0000
1983-07-23 07:00:00 UTC,2445538.791667,28.7317,-95.2428,0170,-1.25,-11.93,12.0000,186.0000
1983-07-23 07:30:00 UTC,2445538.812500,28.7317,-95.2428,0170,-5.83,-9.33,11.0000,212.0000
1983-07-23 08:00:00 UTC,2445538.833333,28.7317,-95.2428,0170,-9.83,-6.88,12.0000,235.0000
1983-07-23 08:30:00 UTC,2445538.854167,28.7317,-95.2428,0170,-12.05,-4.87,13.0000,248.0000
1983-07-23 09:00:00 UTC,2445538.875000,28.7317,-95.2428,0170,-11.54,-3.31,12.0000,254.0000
1983-07-23 09:30:00 UTC,2445538.895833,28.7317,-95.2428,0170,-11.69,-2.70,12.0000,257.0000
1983-07-23 10:00:00 UTC,2445538.916667,28.7317,-95.2428,0170,-13.92,-1.46,14.0000,264.0000
1983-07-23 10:30:00 UTC,2445538.937500,28.7317,-95.2428,0170,-15.96,1.12,16.0000,274.0000
1983-07-23 11:00:00 UTC,2445538.958333,28.7317,-95.2428,0170,-17.54,4.05,18.0000,283.0000
1983-07-23 11:30:00 UTC,2445538.979167,28.7317,-95.2428,0170,-18.41,7.81,20.0000,293.0000
1983-07-23 12:00:00 UTC,2445539.000000,28.7317,-95.2428,0170,-16.96,10.60,20.0000,302.0000
1983-07-23 12:30:00 UTC,2445539.020833,28.7317,-95.2428,0170,-15.32,12.86,20.0000,310.0000
1983-07-23 13:00:00 UTC,2445539.041667,28.7317,-95.2428,0170,-12.47,14.34,19.0000,319.0000
1983-07-23 13:30:00 UTC,2445539.062500,28.7317,-95.2428,0170,-10.00,17.32,20.0000,330.0000
1983-07-23 14:00:00 UTC,2445539.083333,28.7317,-95.2428,0170,-6.43,21.04,22.0000,343.0000
1983-07-23 14:30:00 UTC,2445539.104167,28.7317,-95.2428,0170,-2.00,22.91,23.0000,355.0000
1983-07-23 15:00:00 UTC,2445539.125000,28.7317,-95.2428,0170,1.31,24.97,25.0000,3.0000
1983-07-23 15:30:00 UTC,2445539.145833,28.7317,-95.2428,0170,3.76,26.74,27.0000,8.0000
1983-07-23 16:00:00 UTC,2445539.166667,28.7317,-95.2428,0170,6.75,29.23,30.0000,13.0000
1983-07-23 16:30:00 UTC,2445539.187500,28.7317,-95.2428,0170,10.94,30.07,32.0000,20.0000
1983-07-23 17:00:00 UTC,2445539.208333,28.7317,-95.2428,0170,14.03,28.76,32.0000,26.0000
1983-07-23 17:30:00 UTC,2445539.229167,28.7317,-95.2428,0170,16.43,26.29,31.0000,32.0000
1983-07-23 18:00:00 UTC,2445539.250000,28.7317,-95.2428,0170,17.45,23.16,29.0000,37.0000
1983-07-23 18:30:00 UTC,2445539.270833,28.7317,-95.2428,0170,18.74,20.81,28.0000,42.0000
1983-07-23 19:00:00 UTC,2445539.291667,28.7317,-95.2428,0170,18.06,18.70,26.0000,44.0000
1983-07-23 19:30:00 UTC,2445539.312500,28.7317,-95.2428,0170,15.69,16.82,23.0000,43.0000
1983-07-23 20:00:00 UTC,2445539.333333,28.7317,-95.2428,0170,15.11,14.59,21.0000,46.0000
1983-07-23 20:30:00 UTC,2445539.354167,28.7317,-95.2428,0170,15.56,10.90,19.0000,55.0000
1983-07-23 21:00:00 UTC,2445539.375000,28.7317,-95.2428,0170,15.41,7.18,17.0000,65.0000
1983-07-23 21:30:00 UTC,2445539.395833,28.7317,-95.2428,0170,14.67,3.12,15.0000,78.0000
1983-07-23 22:00:00 UTC,2445539.416667,28.7317,-95.2428,0170,13.99,-0.49,14.0000,92.0000
1983-07-23 22:30:00 UTC,2445539.437500,28.7317,-95.2428,0170,13.58,-3.39,14.0000,104.0000
1983-07-23 23:00:00 UTC,2445539.458333,28.7317,-95.2428,0170,11.78,-5.49,13.0000,115.0000
1983-07-23 23:30:00 UTC,2445539.479167,28.7317,-95.2428,0170,10.38,-7.82,13.0000,127.0000
1983-07-24 00:00:00 UTC,2445539.500000,28.7317,-95.2428,0170,8.70,-9.66,13.0000,138.0000
1983-07-24 00:30:00 UTC,2445539.520833,28.7317,-95.2428,0170,6.00,-10.39,12.0000,150.0000
1983-07-24 01:00:00 UTC,2445539.541667,28.7317,-95.2428,0170,4.30,-11.20,12.0000,159.0000
1983-07-24 01:30:00 UTC,2445539.562500,28.7317,-95.2428,0170,3.11,-11.59,12.0000,165.0000
1983-07-24 02:00:00 UTC,2445539.583333,28.7317,-95.2428,0170,2.47,-10.72,11.0000,167.0000
1983-07-24 02:30:00 UTC,2445539.604167,28.7317,-95.2428,0170,1.22,-9.93,10.0000,173.0000
1983-07-24 03:00:00 UTC,2445539.625000,28.7317,-95.2428,0170,-0.78,-8.97,9.0000,185.0000
1983-07-24 03:30:00 UTC,2445539.645833,28.7317,-95.2428,0170,-3.18,-5.09,6.0000,212.0000
1983-07-24 04:00:00 UTC,2445539.666667,28.7317,-95.2428,0170,-5.74,-1.75,6.0000,253.0000
1983-07-24 04:30:00 UTC,2445539.687500,28.7317,-95.2428,0170,-6.93,0.97,7.0000,278.0000
1983-07-24 05:00:00 UTC,2445539.708333,28.7317,-95.2428,0170,-7.31,3.25,8.0000,294.0000
1983-07-24 05:30:00 UTC,2445539.729167,28.7317,-95.2428,0170,-7.09,5.54,9.0000,308.0000
1983-07-24 06:00:00 UTC,2445539.750000,28.7317,-95.2428,0170,-7.50,8.04,11.0000,317.0000
1983-07-24 06:30:00 UTC,2445539.770833,28.7317,-95.2428,0170,-6.88,9.83,12.0000,325.0000
1983-07-24 07:00:00 UTC,2445539.791667,28.7317,-95.2428,0170,-4.87,12.05,13.0000,338.0000
1983-07-24 07:30:00 UTC,2445539.812500,28.7317,-95.2428,0170,-2.91,13.69,14.0000,348.0000
1983-07-24 08:00:00 UTC,2445539.833333,28.7317,-95.2428,0170,-2.09,14.85,15.0000,352.0000
1983-07-24 08:30:00 UTC,2445539.854167,28.7317,-95.2428,0170,-2.23,15.84,16.0000,352.0000
1983-07-24 09:00:00 UTC,2445539.875000,28.7317,-95.2428,0170,-1.78,16.91,17.0000,354.0000
1983-07-24 09:30:00 UTC,2445539.895833,28.7317,-95.2428,0170,-0.66,18.99,19.0000,358.0000
1983-07-24 10:00:00 UTC,2445539.916667,28.7317,-95.2428,0170,0.37,21.00,21.0000,1.0000
1983-07-24 10:30:00 UTC,2445539.937500,28.7317,-95.2428,0170,2.40,22.87,23.0000,6.0000
1983-07-24 11:00:00 UTC,2445539.958333,28.7317,-95.2428,0170,5.40,23.38,24.0000,13.0000
1983-07-24 11:30:00 UTC,2445539.979167,28.7317,-95.2428,0170,8.14,23.64,25.0000,19.0000
1983-07-24 12:00:00 UTC,2445540.000000,28.7317,-95.2428,0170,8.96,23.34,25.0000,21.0000
1983-07-24 12:30:00 UTC,2445540.020833,28.7317,-95.2428,0170,8.62,21.33,23.0000,22.0000
1983-07-24 13:00:00 UTC,2445540.041667,28.7317,-95.2428,0170,8.95,20.10,22.0000,24.0000
1983-07-24 13:30:00 UTC,2445540.062500,28.7317,-95.2428,0170,10.08,20.67,23.0000,26.0000
1983-07-24 14:00:00 UTC,2445540.083333,28.7317,-95.2428,0170,11.27,21.19,24.0000,28.0000
1983-07-24 14:30:00 UTC,2445540.104167,28.7317,-95.2428,0170,12.50,21.65,25.0000,30.0000
1983-07-24 15:00:00 UTC,2445540.125000,28.7317,-95.2428,0170,12.61,22.74,26.0000,29.0000
1983-07-24 15:30:00 UTC,2445540.145833,28.7317,-95.2428,0170,12.68,23.84,27.0000,28.0000
1983-07-24 16:00:00 UTC,2445540.166667,28.7317,-95.2428,0170,13.15,24.72,28.0000,28.0000
1983-07-24 16:30:00 UTC,2445540.187500,28.7317,-95.2428,0170,12.68,23.84,27.0000,28.0000
1983-07-24 17:00:00 UTC,2445540.208333,28.7317,-95.2428,0170,11.80,23.17,26.0000,27.0000
1983-07-24 17:30:00 UTC,2445540.229167,28.7317,-95.2428,0170,12.21,22.96,26.0000,28.0000
1983-07-24 18:00:00 UTC,2445540.250000,28.7317,-95.2428,0170,13.91,23.14,27.0000,31.0000
1983-07-24 18:30:00 UTC,2445540.270833,28.7317,-95.2428,0170,16.46,22.65,28.0000,36.0000
1983-07-24 19:00:00 UTC,2445540.291667,28.7317,-95.2428,0170,17.36,20.68,27.0000,40.0000
1983-07-24 19:30:00 UTC,2445540.312500,28.7317,-95.2428,0170,17.40,19.32,26.0000,42.0000
1983-07-24 20:00:00 UTC,2445540.333333,28.7317,-95.2428,0170,18.06,18.70,26.0000,44.0000
1983-07-24 20:30:00 UTC,2445540.354167,28.7317,-95.2428,0170,19.32,17.40,26.0000,48.0000
1983-07-24 21:00:00 UTC,2445540.375000,28.7317,-95.2428,0170,19.43,15.73,25.0000,51.0000
1983-07-24 21:30:00 UTC,2445540.395833,28.7317,-95.2428,0170,19.43,15.73,25.0000,51.0000
1983-07-24 22:00:00 UTC,2445540.416667,28.7317,-95.2428,0170,18.65,15.10,24.0000,51.0000
1983-07-24 22:30:00 UTC,2445540.437500,28.7317,-95.2428,0170,20.48,14.34,25.0000,55.0000
1983-07-24 23:00:00 UTC,2445540.458333,28.7317,-95.2428,0170,24.72,13.15,28.0000,62.0000
1983-07-24 23:30:00 UTC,2445540.479167,28.7317,-95.2428,0170,25.17,12.27,28.0000,64.0000
1983-07-25 00:00:00 UTC,2445540.500000,28.7317,-95.2428,0170,22.96,12.21,26.0000,62.0000
1983-07-25 00:30:00 UTC,2445540.520833,28.7317,-95.2428,0170,20.57,12.36,24.0000,59.0000
1983-07-25 01:00:00 UTC,2445540.541667,28.7317,-95.2428,0170,16.96,10.60,20.0000,58.0000
1983-07-25 01:30:00 UTC,2445540.562500,28.7317,-95.2428,0170,14.74,10.32,18.0000,55.0000
1983-07-25 02:00:00 UTC,2445540.583333,28.7317,-95.2428,0170,14.18,11.08,18.0000,52.0000
1983-07-25 02:30:00 UTC,2445540.604167,28.7317,-95.2428,0170,13.38,12.04,18.0000,48.0000
1983-07-25 03:00:00 UTC,2445540.625000,28.7317,-95.2428,0170,12.73,12.73,18.0000,45.0000
1983-07-25 03:30:00 UTC,2445540.645833,28.7317,-95.2428,0170,11.15,12.83,17.0000,41.0000
1983-07-25 04:00:00 UTC,2445540.666667,28.7317,-95.2428,0170,10.70,13.21,17.0000,39.0000
1983-07-25 04:30:00 UTC,2445540.687500,28.7317,-95.2428,0170,10.47,13.40,17.0000,38.0000
1983-07-25 05:00:00 UTC,2445540.708333,28.7317,-95.2428,0170,10.90,15.56,19.0000,35.0000
1983-07-25 05:30:00 UTC,2445540.729167,28.7317,-95.2428,0170,11.44,17.61,21.0000,33.0000
1983-07-25 06:00:00 UTC,2445540.750000,28.7317,-95.2428,0170,11.13,17.81,21.0000,32.0000
1983-07-25 06:30:00 UTC,2445540.770833,28.7317,-95.2428,0170,11.13,17.81,21.0000,32.0000
1983-07-25 07:00:00 UTC,2445540.791667,28.7317,-95.2428,0170,11.13,17.81,21.0000,32.0000
1983-07-25 07:30:00 UTC,2445540.812500,28.7317,-95.2428,0170,10.67,19.24,22.0000,29.0000
1983-07-25 08:00:00 UTC,2445540.833333,28.7317,-95.2428,0170,10.14,21.75,24.0000,25.0000
1983-07-25 08:30:00 UTC,2445540.854167,28.7317,-95.2428,0170,10.55,24.85,27.0000,23.0000
1983-07-25 09:00:00 UTC,2445540.875000,28.7317,-95.2428,0170,12.20,27.41,30.0000,24.0000
1983-07-25 09:30:00 UTC,2445540.895833,28.7317,-95.2428,0170,13.10,28.10,31.0000,25.0000
1983-07-25 10:00:00 UTC,2445540.916667,28.7317,-95.2428,0170,14.53,28.51,32.0000,27.0000
1983-07-25 10:30:00 UTC,2445540.937500,28.7317,-95.2428,0170,14.47,29.66,33.0000,26.0000
1983-07-25 11:00:00 UTC,2445540.958333,28.7317,-95.2428,0170,13.95,29.91,33.0000,25.0000
1983-07-25 11:30:00 UTC,2445540.979167,28.7317,-95.2428,0170,13.52,29.00,32.0000,25.0000
1983-07-25 12:00:00 UTC,2445541.000000,28.7317,-95.2428,0170,14.03,28.76,32.0000,26.0000